Regional Weather Roundup
Issued by NWS

Home | Current Version | Previous Version | Text Only | Print | Product List | Glossary Off
Versions: 1 2 3 4 5 6 7 8 9 10 11 12 13 14 15 16 17 18 19 20 21 22 23 24 25 26 27 28 29 30 31 32 33 34 35 36 37 38 39 40 41 42 43 44 45 46 47 48 49 50

000
ASUS43 KOAX 101410
RWRNE

WEATHER ROUNDUP FOR NEBRASKA
NATIONAL WEATHER SERVICE OMAHA NE
900 AM CDT THU JUL 10 2014

NOTES: SATELLITE DATA IS BEING USED TO AUGMENT CLOUD COVER ABOVE
       12000 FEET.
       "FAIR" INDICATES FEW OR NO CLOUDS BELOW 12,000 FEET WITH NO
       SIGNIFICANT WEATHER AND/OR OBSTRUCTIONS TO VISIBILITY.

  * THESE STATIONS DO NOT REPORT WEATHER SUCH AS RAIN...SNOW OR FOG.

NEZ001>004-019>022-054>056-101500-
NEBRASKA PANHANDLE

CITY           SKY/WX    TMP DP  RH WIND       PRES   REMARKS
SCOTTSBLUFF    SUNNY     65  57  75 E7        29.97S
ALLIANCE       MOSUNNY   66  60  81 S13       29.98R
CHADRON        PTSUNNY   68  60  75 S17       29.89F
KIMBALL        SUNNY     66  56  71 S14       30.03R
SIDNEY         MOSUNNY   66  59  78 S17G24    30.02S
$$

NEZ057>060-069>072-079>082-101500-
SOUTHWEST NEBRASKA

CITY           SKY/WX    TMP DP  RH WIND       PRES   REMARKS
NORTH PLATTE   CLOUDY    67  62  84 S16       30.00S
IMPERIAL       CLOUDY    68  62  81 S15       30.00R
LEXINGTON      SUNNY     71  65  81 SW6       29.99F
MCCOOK         SUNNY     71  63  75 S17G23    30.00R
OGALLALA       CLOUDY    66  62  85 S14       29.99S
$$

NEZ005>010-023>029-035>040-094-101500-
NORTH CENTRAL NEBRASKA

CITY           SKY/WX    TMP DP  RH WIND       PRES   REMARKS
VALENTINE      PTSUNNY   70  62  76 SW15      29.96R
AINSWORTH      MOSUNNY   67  63  87 S9        29.98R
BROKEN BOW     SUNNY     69  64  84 SE8       29.99S
O`NEILL        CLOUDY    68  61  77 S9        30.00R
ORD            MOSUNNY   67  62  84 SE10      29.99R
THEDFORD       PTSUNNY   70  63  77 S17       29.98F
$$

NEZ041-046>049-061>064-073>077-083>087-101500-
SOUTH CENTRAL NEBRASKA

CITY           SKY/WX    TMP DP  RH WIND       PRES   REMARKS
GRAND ISLAND   MOSUNNY   70  63  78 SE8       30.01R
AURORA         MOSUNNY   70  66  88 SE12      30.01R
HASTINGS       MOSUNNY   69  61  75 S7        30.00R
HEBRON         PTSUNNY   73  64  75 SE10      30.00R
HOLDREGE       SUNNY     70  64  81 S5        30.00S
KEARNEY *      MOSUNNY   70  64  83 SE6       30.01R
YORK           MOSUNNY   70  66  88 SE13      30.01S
$$

NEZ011>018-030>034-042>045-101500-
NORTHEAST NEBRASKA

CITY           SKY/WX    TMP DP  RH WIND       PRES   REMARKS
NORFOLK        SUNNY     72  63  73 SE14      30.00F
ALBION         SUNNY     67  62  84 SE13      30.00F
BLAIR          SUNNY     71  61  71 SE9       30.05S
FREMONT        SUNNY     73  64  73 SE8       30.04S
TEKAMAH        PTSUNNY   70  64  81 SE9       30.04S
WAYNE          SUNNY     70  65  83 S8        30.03F
$$

NEZ050>053-065>068-078-088>093-101500-
SOUTHEAST NEBRASKA

CITY           SKY/WX    TMP DP  RH WIND       PRES   REMARKS
LINCOLN        PTSUNNY   75  64  68 SE15      30.03S
OMAHA EPPLEY   PTSUNNY   71  61  70 SE12      30.05S
BEATRICE       PTSUNNY   69  63  80 SE10G16   30.02R
FALLS CITY     PTSUNNY   73  62  68 SE14      30.06R
NEBRASKA CITY  PTSUNNY   71  62  71 SE13      30.05S
PLATTSMOUTH    MOSUNNY   71  62  73 SE8       30.05S
$$

NEZ044-045-051>053-067-101500-
OMAHA AREA

CITY           SKY/WX    TMP DP  RH WIND       PRES   REMARKS
OMAHA EPPLEY   PTSUNNY   71  61  70 SE12      30.05S
BLAIR          SUNNY     71  61  71 SE9       30.05S
FREMONT        SUNNY     73  64  73 SE8       30.04S
MILLARD        PTSUNNY   72  64  74 E12       30.04S
OFFUTT AFB     MOSUNNY   70  66  87 SE9       30.05S
PLATTSMOUTH    MOSUNNY   71  62  73 SE8       30.05S
WAHOO          FAIR      71  64  80 SE9       30.02S
$$



USA.gov is the U.S. government's official web portal to all federal, state and local government web resources and services.